FW2972 Weather Reports


time (UTC)temp
C
wind
direction
speed
KPH
gust
KPH
rain 1hr
cm
rain 24hr
cm
rain mn
cm
humidity
%
barometer
mb
20260505171649 26 211 0.0 9.7 0.00 0.00 0.00 92 1014.3
20260505171147 26 199 3.2 11.3 0.00 0.00 0.00 89 1014.4
20260505170644 26 257 4.8 6.4 0.00 0.00 0.00 90 1014.4
20260505170140 26 273 0.0 4.8 0.00 0.00 0.00 91 1014.5
20260505165635 26 191 3.2 9.7 0.00 0.00 0.00 91 1014.4
20260505165132 25 129 9.7 14.5 0.00 0.00 0.00 91 1014.3
20260505164627 26 226 3.2 8.0 0.00 0.00 0.00 91 1014.3
20260505164125 26 215 3.2 16.1 0.00 0.00 0.00 90 1014.3
20260505163623 26 236 1.6 9.7 0.00 0.00 0.00 90 1014.2
20260505163120 26 222 0.0 6.4 0.00 0.00 0.00 89 1014.2
20260505162617 26 149 1.6 8.0 0.00 0.00 0.00 89 1014.2
20260505162115 26 260 1.6 6.4 0.00 0.00 0.00 89 1014.3
20260505161612 26 250 3.2 8.0 0.00 0.00 0.00 90 1014.4
20260505161109 26 213 1.6 8.0 0.00 0.00 0.00 90 1014.3
20260505160607 25 226 4.8 11.3 0.00 0.00 0.00 89 1014.1
20260505160104 26 84 3.2 8.0 0.00 0.00 0.00 88 1014.0
20260505153044 26 184 1.6 6.4 0.00 0.00 0.00 86 1013.9
20260505152540 26 244 0.0 12.9 0.00 0.00 0.00 87 1014.0
20260505152036 26 272 6.4 8.0 0.00 0.00 0.00 87 1013.8
20260505151531 26 255 0.0 4.8 0.00 0.00 0.00 88 1013.9
20260505151029 26 190 3.2 11.3 0.00 0.00 0.00 88 1013.9
20260505150525 26 224 0.0 8.0 0.00 0.00 0.00 87 1013.9
20260505140450 25 225 4.8 8.0 0.00 0.00 0.00 92 1014.1
20260505124903 23 232 0.0 4.8 0.00 0.00 0.00 95 1013.7
20260505124401 23 116 4.8 9.7 0.00 0.00 0.00 95 1013.5
20260505123856 23 191 3.2 8.0 0.00 0.00 0.00 95 1013.6
20260505123353 23 195 0.0 4.8 0.00 0.00 0.00 95 1013.4
20260505122849 23 166 3.2 8.0 0.00 0.00 0.00 95 1013.3
20260505122347 23 315 0.0 6.4 0.00 0.00 0.00 95 1013.3
20260505121843 23 140 6.4 14.5 0.00 0.00 0.00 95 1013.1
20260505121340 23 154 4.8 12.9 0.00 0.00 0.00 95 1013.4
20260505120836 23 203 1.6 8.0 0.00 0.00 0.00 95 1013.4
20260505120332 23 183 0.0 4.8 0.00 0.00 0.00 95 1013.5
20260505115831 23 123 1.6 4.8 0.00 0.00 0.00 95 1013.7
20260505115329 23 142 0.0 8.0 0.00 0.00 0.00 95 1013.3
20260505114826 23 114 1.6 8.0 0.00 0.00 0.00 95 1013.4
20260505114323 22 119 1.6 8.0 0.00 0.00 0.00 95 1013.3
20260505113819 22 160 1.6 11.3 0.00 0.00 0.00 95 1013.6
20260505113315 22 132 0.0 11.3 0.00 0.00 0.00 95 1013.1
20260505112811 22 222 6.4 8.0 0.00 0.00 0.00 95 1013.4
20260505112309 22 234 0.0 4.8 0.00 0.00 0.00 95 1013.2
20260505111805 22 192 1.6 4.8 0.00 0.00 0.00 95 1013.4
20260505111300 22 152 0.0 4.8 0.00 0.00 0.00 95 1013.3
20260505110756 22 261 0.0 4.8 0.00 0.00 0.00 95 1013.5
20260505110254 22 175 0.0 4.8 0.00 0.00 0.00 94 1013.6
20260505101728 22 100 0.0 6.4 0.00 0.00 0.00 94 1013.3
20260505101224 22 179 3.2 9.7 0.00 0.00 0.00 94 1013.3
20260505100720 22 129 4.8 4.8 0.00 0.00 0.00 94 1013.1
20260505100217 22 125 8.0 14.5 0.00 0.00 0.00 94 1013.3
20260505095712 22 221 1.6 6.4 0.00 0.00 0.00 94 1013.2
20260505095211 22 178 3.2 6.4 0.00 0.00 0.00 94 1013.3
20260505094706 22 233 3.2 6.4 0.00 0.00 0.00 94 1013.3
20260505094203 22 242 0.0 8.0 0.00 0.00 0.00 94 1013.5
20260505093659 22 127 0.0 3.2 0.00 0.00 0.00 94 1013.6
20260505093157 22 131 1.6 4.8 0.00 0.00 0.00 94 1013.6
20260505092653 22 212 1.6 4.8 0.00 0.00 0.00 94 1013.5
20260505092152 22 209 0.0 4.8 0.00 0.00 0.00 94 1013.6
20260505091649 22 224 0.0 3.2 0.00 0.00 0.00 94 1013.5
20260505091147 22 217 1.6 6.4 0.00 0.00 0.00 94 1013.8
20260505090644 22 230 1.6 11.3 0.00 0.00 0.00 94 1013.7
20260505090142 22 111 1.6 4.8 0.00 0.00 0.00 93 1013.6
20260505085639 22 268 0.0 8.0 0.00 0.00 0.00 93 1013.5
20260505085137 22 97 4.8 6.4 0.00 0.00 0.00 93 1013.6
20260505084635 22 154 0.0 6.4 0.00 0.00 0.00 92 1013.6
20260505084133 22 223 1.6 6.4 0.00 0.00 0.00 92 1013.5
20260505083630 22 214 0.0 8.0 0.00 0.00 0.00 92 1013.5
20260505083127 22 120 4.8 9.7 0.00 0.00 0.00 92 1013.6
20260505082623 22 304 0.0 4.8 0.00 0.00 0.00 92 1013.7
20260505082120 22 148 0.0 8.0 0.00 0.00 0.00 92 1013.6
20260505081616 22 119 4.8 8.0 0.00 0.00 0.00 92 1013.8
20260505081114 22 222 3.2 11.3 0.00 0.00 0.00 91 1013.7
20260505080609 22 240 0.0 8.0 0.00 0.00 0.00 91 1013.7
20260505080106 22 76 3.2 8.0 0.00 0.00 0.00 91 1013.8
20260505075602 22 125 1.6 14.5 0.00 0.00 0.00 91 1013.9
20260505075059 22 121 4.8 8.0 0.00 0.00 0.00 92 1013.8
20260505074556 22 118 3.2 4.8 0.00 0.00 0.00 91 1014.0
20260505074053 22 182 0.0 11.3 0.00 0.00 0.00 91 1014.0
20260505073550 22 235 6.4 8.0 0.00 0.00 0.00 91 1013.9
20260505073049 22 174 0.0 4.8 0.00 0.00 0.00 91 1014.0
20260505072549 22 207 0.0 4.8 0.00 0.00 0.00 91 1014.1
20260505072046 22 315 0.0 6.4 0.00 0.00 0.00 91 1014.0
20260505071542 22 208 0.0 8.0 0.00 0.00 0.00 91 1013.9
20260505071040 22 225 3.2 3.2 0.00 0.00 0.00 91 1014.2
20260505070537 22 89 0.0 4.8 0.00 0.00 0.00 91 1014.0
20260505070033 22 164 0.0 8.0 0.00 0.00 0.00 91 1014.1
20260505065529 22 266 3.2 6.4 0.00 0.00 0.00 91 1014.3
20260505065026 22 240 4.8 6.4 0.00 0.00 0.00 91 1014.4
20260505064523 22 142 1.6 9.7 0.00 0.00 0.00 91 1014.5
20260505064021 22 158 1.6 4.8 0.00 0.00 0.00 91 1014.7
20260505063518 22 59 3.2 4.8 0.00 0.00 0.00 91 1014.5
20260505063014 22 168 1.6 6.4 0.00 0.00 0.00 92 1014.9
20260505062511 21 192 1.6 3.2 0.00 0.00 0.00 91 1014.9
20260505062008 22 150 0.0 8.0 0.00 0.00 0.00 91 1015.0
20260505061506 21 197 1.6 6.4 0.00 0.00 0.00 91 1015.1
20260505061003 21 226 3.2 4.8 0.00 0.00 0.00 91 1015.0
20260505060500 21 172 1.6 6.4 0.00 0.00 0.00 91 1014.9
20260505055956 22 242 0.0 8.0 0.00 0.00 0.00 90 1014.8
20260505055452 22 180 1.6 8.0 0.00 0.00 0.00 90 1015.0
20260505054949 22 167 0.0 3.2 0.00 0.00 0.00 90 1015.1
20260505054447 22 199 1.6 9.7 0.00 0.00 0.00 90 1015.1
20260505053945 22 238 3.2 12.9 0.00 0.00 0.00 90 1015.0
20260505053441 22 217 1.6 4.8 0.00 0.00 0.00 90 1015.1
20260505052938 22 206 3.2 14.5 0.00 0.00 0.00 89 1015.1
20260505052435 22 269 0.0 11.3 0.00 0.00 0.00 89 1015.2
20260505051932 22 166 0.0 9.7 0.00 0.00 0.00 89 1015.3
20260505051429 22 178 1.6 8.0 0.00 0.00 0.00 89 1015.2
20260505050927 22 93 1.6 9.7 0.00 0.00 0.00 89 1015.2
20260505050425 22 124 4.8 8.0 0.00 0.00 0.00 89 1015.1
20260505041353 22 197 0.0 3.2 0.00 0.00 0.00 88 1015.6
20260505040850 22 207 1.6 6.4 0.00 0.00 0.00 87 1015.6
20260505040348 22 185 3.2 9.7 0.00 0.00 0.00 87 1015.8
20260505035844 22 235 0.0 4.8 0.00 0.00 0.00 87 1015.8
20260505035340 22 182 4.8 8.0 0.00 0.00 0.00 87 1015.9
20260505034838 22 168 3.2 4.8 0.00 0.00 0.00 87 1015.7
20260505034334 22 242 1.6 8.0 0.00 0.00 0.00 86 1015.9
20260505033831 22 158 1.6 11.3 0.00 0.00 0.00 86 1015.7
20260505033328 22 161 4.8 8.0 0.00 0.00 0.00 86 1015.6
20260505032826 22 183 1.6 6.4 0.00 0.00 0.00 85 1015.6
20260505032322 22 166 3.2 8.0 0.00 0.00 0.00 85 1015.6
20260505031820 22 245 0.0 4.8 0.00 0.00 0.00 85 1015.7
20260505031316 22 129 3.2 8.0 0.00 0.00 0.00 85 1015.8
20260505030813 22 146 3.2 8.0 0.00 0.00 0.00 84 1015.7
20260505030310 22 228 1.6 6.4 0.00 0.00 0.00 84 1015.8
20260505025804 22 142 4.8 8.0 0.00 0.00 0.00 84 1015.9
20260505025304 22 141 4.8 8.0 0.00 0.00 0.00 83 1015.9
20260505024801 22 188 3.2 6.4 0.00 0.00 0.00 83 1015.7
20260505024258 22 148 3.2 8.0 0.00 0.00 0.00 83 1015.7
20260505023755 22 180 0.0 14.5 0.00 0.00 0.00 83 1015.5
20260505023252 22 199 0.0 11.3 0.00 0.00 0.00 83 1015.7
20260505022749 22 137 4.8 11.3 0.00 0.00 0.00 83 1015.7
20260505022246 22 142 4.8 8.0 0.00 0.00 0.00 82 1015.7
20260505021743 22 256 0.0 6.4 0.00 0.00 0.00 82 1015.7
20260505021240 22 190 3.2 6.4 0.00 0.00 0.00 82 1015.7
20260505020736 22 183 0.0 4.8 0.00 0.00 0.00 82 1015.5
20260505020231 22 198 0.0 4.8 0.00 0.00 0.00 81 1015.7
20260505015729 23 182 0.0 9.7 0.00 0.00 0.00 81 1015.5
20260505015225 23 155 3.2 8.0 0.00 0.00 0.00 81 1015.6
20260505014722 23 202 3.2 14.5 0.00 0.00 0.00 81 1015.5
20260505014220 23 210 1.6 11.3 0.00 0.00 0.00 80 1015.3
20260505013716 23 166 1.6 8.0 0.00 0.00 0.00 81 1015.4
20260505013214 23 148 3.2 14.5 0.00 0.00 0.00 81 1015.4
20260505012712 23 104 11.3 14.5 0.00 0.00 0.00 80 1015.5
20260505012209 23 244 3.2 17.7 0.00 0.00 0.00 80 1015.7
20260505011704 23 87 8.0 17.7 0.00 0.00 0.00 80 1015.2
20260505011202 23 159 4.8 8.0 0.00 0.00 0.00 80 1015.5
20260505010657 23 114 0.0 6.4 0.00 0.00 0.00 79 1015.3
20260505010154 23 156 0.0 6.4 0.00 0.00 0.00 79 1015.4
20260505005650 23 184 1.6 9.7 0.00 0.00 0.00 79 1015.3
20260505005147 23 104 1.6 19.3 0.00 0.00 0.00 78 1015.1
20260505004644 23 147 3.2 12.9 0.00 0.00 0.00 78 1015.1
20260505004141 23 164 4.8 17.7 0.00 0.00 0.00 77 1015.1
20260505003638 23 139 3.2 9.7 0.00 0.00 0.00 77 1015.3
20260505003136 23 168 1.6 9.7 0.00 0.00 0.00 76 1015.2
20260505002631 23 224 4.8 14.5 0.00 0.00 0.00 75 1015.4
20260505002130 24 168 3.2 9.7 0.00 0.00 0.00 75 1015.3
20260505001626 24 168 4.8 16.1 0.00 0.00 0.00 74 1015.1
20260505001124 24 194 3.2 11.3 0.00 0.00 0.00 74 1015.4
20260505000621 25 142 8.0 17.7 0.00 0.00 0.00 73 1015.3
20260505000119 25 136 3.2 12.9 0.00 0.00 0.00 72 1015.4
20260504235615 25 211 4.8 9.7 0.00 0.00 0.00 72 1015.8
20260504235112 25 273 6.4 9.7 0.00 0.00 0.00 72 1015.4
20260504234609 25 204 1.6 12.9 0.00 0.00 0.00 73 1015.4
20260504234106 25 185 3.2 8.0 0.00 0.00 0.00 74 1015.5
20260504233601 25 219 4.8 19.3 0.00 0.00 0.00 73 1015.6
20260504233058 25 218 3.2 16.1 0.00 0.00 0.00 73 1015.5
20260504232555 25 195 8.0 14.5 0.00 0.00 0.00 72 1015.6
20260504232053 25 147 3.2 8.0 0.00 0.00 0.00 71 1015.7
20260504231549 25 249 6.4 16.1 0.00 0.00 0.00 72 1015.7
20260504231045 25 140 6.4 8.0 0.00 0.00 0.00 73 1015.9
20260504230541 25 161 6.4 19.3 0.00 0.00 0.00 73 1016.0
20260504230041 25 204 8.0 12.9 0.00 0.00 0.00 72 1016.0
20260504225537 25 160 4.8 16.1 0.00 0.00 0.00 71 1016.0
20260504225035 25 237 1.6 4.8 0.00 0.00 0.00 71 1015.9
20260504224531 25 258 3.2 8.0 0.00 0.00 0.00 72 1016.0
20260504224028 25 261 4.8 11.3 0.00 0.00 0.00 71 1016.0
20260504223525 25 88 3.2 16.1 0.00 0.00 0.00 71 1016.2
20260504223021 25 202 3.2 11.3 0.00 0.00 0.00 71 1016.1
20260504222518 25 208 4.8 14.5 0.00 0.00 0.00 70 1016.2
20260504222015 25 210 3.2 8.0 0.00 0.00 0.00 71 1016.3
20260504221513 25 209 3.2 11.3 0.00 0.00 0.00 71 1016.5
20260504221009 25 238 11.3 14.5 0.00 0.00 0.00 70 1016.5
20260504220506 25 144 3.2 11.3 0.00 0.00 0.00 70 1016.5
20260504220003 26 140 3.2 8.0 0.00 0.00 0.00 69 1016.6
20260504215459 26 229 3.2 8.0 0.00 0.00 0.00 69 1016.6
20260504214956 26 168 4.8 17.7 0.00 0.00 0.00 69 1016.6
20260504214452 25 215 1.6 11.3 0.00 0.00 0.00 69 1016.5
20260504213949 25 215 3.2 11.3 0.00 0.00 0.00 70 1016.7
20260504213445 25 97 4.8 25.7 0.00 0.00 0.00 69 1017.0
20260504212943 26 201 1.6 8.0 0.00 0.00 0.00 67 1016.7
20260504212438 26 180 3.2 16.1 0.00 0.00 0.00 66 1016.9
20260504211936 26 142 17.7 25.7 0.00 0.00 0.00 67 1016.8
20260504211432 26 240 4.8 29.0 0.00 0.00 0.00 67 1016.8
20260504210930 27 242 0.0 11.3 0.00 0.00 0.00 66 1016.8
20260504210427 27 254 3.2 9.7 0.00 0.00 0.00 64 1017.1
20260504205924 27 239 3.2 8.0 0.00 0.00 0.00 63 1016.9
20260504205421 28 210 3.2 14.5 0.00 0.00 0.00 61 1017.2
20260504204919 27 192 6.4 20.9 0.00 0.00 0.00 64 1016.8
20260504204417 27 150 3.2 6.4 0.00 0.00 0.00 62 1017.2
20260504203917 27 262 4.8 16.1 0.00 0.00 0.00 62 1017.2
20260504203414 27 225 4.8 11.3 0.00 0.00 0.00 62 1017.3
20260504202909 27 260 0.0 6.4 0.00 0.00 0.00 61 1017.4
20260504202406 27 188 3.2 14.5 0.00 0.00 0.00 62 1017.4
20260504201903 27 107 4.8 9.7 0.00 0.00 0.00 61 1017.5
20260504201401 28 229 4.8 6.4 0.00 0.00 0.00 60 1017.5
20260504200857 27 192 4.8 11.3 0.00 0.00 0.00 61 1017.5
20260504200354 28 235 3.2 8.0 0.00 0.00 0.00 59 1017.6
20260504195851 27 253 3.2 11.3 0.00 0.00 0.00 61 1017.7
20260504195346 28 300 3.2 11.3 0.00 0.00 0.00 59 1017.7
20260504194843 28 48 3.2 6.4 0.00 0.00 0.00 59 1017.9
20260504194339 28 235 6.4 9.7 0.00 0.00 0.00 60 1017.8
20260504193835 27 251 4.8 19.3 0.00 0.00 0.00 61 1017.7
20260504193333 27 231 4.8 11.3 0.00 0.00 0.00 62 1018.2
20260504192831 28 169 4.8 12.9 0.00 0.00 0.00 59 1018.1
20260504192329 27 219 0.0 12.9 0.00 0.00 0.00 59 1018.2
20260504191827 28 260 6.4 8.0 0.00 0.00 0.00 56 1018.2
20260504191324 28 222 4.8 12.9 0.00 0.00 0.00 58 1018.3
20260504190820 28 350 3.2 20.9 0.00 0.00 0.00 59 1018.2
20260504190316 28 112 3.2 17.7 0.00 0.00 0.00 60 1018.4
20260504185813 27 108 4.8 8.0 0.00 0.00 0.00 62 1018.4
20260504185310 27 212 1.6 12.9 0.00 0.00 0.00 61 1018.6
20260504184806 27 92 1.6 12.9 0.00 0.00 0.00 62 1018.2
20260504184302 28 233 3.2 8.0 0.00 0.00 0.00 59 1018.5
20260504183757 27 226 1.6 8.0 0.00 0.00 0.00 60 1018.3
20260504183254 27 209 1.6 14.5 0.00 0.00 0.00 61 1018.3
20260504182753 28 161 1.6 11.3 0.00 0.00 0.00 61 1018.7
20260504182250 27 206 3.2 11.3 0.00 0.00 0.00 59 1018.8
20260504181747 27 171 4.8 17.7 0.00 0.00 0.00 61 1018.7
20260504181244 27 273 3.2 9.7 0.00 0.00 0.00 60 1018.8
20260504180743 27 310 0.0 9.7 0.00 0.00 0.00 61 1018.8
20260504180242 27 220 9.7 20.9 0.00 0.00 0.00 60 1018.9
20260504175739 26 226 0.0 14.5 0.00 0.00 0.00 63 1019.0
20260504175235 26 158 8.0 16.1 0.00 0.00 0.00 62 1019.1
20260504174733 27 170 8.0 17.7 0.00 0.00 0.00 61 1018.8
20260504174231 26 168 8.0 9.7 0.00 0.00 0.00 60 1019.0
20260504173727 27 144 6.4 11.3 0.00 0.00 0.00 59 1019.2
20260504173224 27 231 9.7 24.1 0.00 0.00 0.00 59 1019.4
20260504172721 28 104 1.6 8.0 0.00 0.00 0.00 58 1019.5
20260504172217 27 200 4.8 11.3 0.00 0.00 0.00 60 1019.2